Showing default

AISAT, 40054

Orbit data source: Space-Track

AISAT, 40054 is a payload satellite owned by DLR (DE) in SSO that was launched on Mon, 30 Jun 2014 UTC via a PSLV launch vehicle from the Sirharikota (SRI). Payloads include a variety of satellites, spacecraft, and rockets equipped with specific instruments for various scientific and technological missions. These include communications satellites like Starlink; space stations such as the ISS; scientific satellites like the Hubble; Earth observation satellites from companies like Planet Labs, Umbra, and HawkEye 360; GPS; miniature CubeSats for education and research; and military/defense satellites.

Loading next visibility...
AISAT details
Identifier
40054, 2014-034B
Orbit
SSO
Last TLE update10 hours ago
Origin
Flag of DEDLR (DE / GER)
ManufacturerDLR-ISS
MissionNon-operational Civil Communications
Bus & MotorCLAVIS, Unknown motor
Mass10 kg wet, 10 kg dry
Launch date (UTC)
2014-06-30 (10 years ago)
Launch vehicle
PSLV
Launch site
Sirharikota (SRI)
Object type
Payload
Rocket body
Debris
Shape & HBRBox + 1 Truss, 4 m
Radar Cross Section0.040 m², Medium (>0.1 m² and < 1m²)

Expand to show TLE details & history

TLE from 10 hours ago
0 AISAT
1 40054U 14034B   24361.22029659  .00015905  00000-0  14533-2 0  9994
2 40054  98.3105 227.2590 0007724 211.6351 148.4404 14.95101782566445
Epoch: 2024-12-26T05:17Z
Definitive object data (Epoch: 2024-12-26T05:17:13.625Z)
Latitude-0.00008°
Longitude52.74942°
Altitude589.669 km
Speed7.563 km/s
True Right ascension15h 09m 02s
True Declination0° 00' 00"
Sunlit
Object was in daylight at TLE epoch
Visualization TLE readout
Latitude-26.5658°
Longitude57.33511°
Altitude594.931 km
Speed7.56 km/s
Apparent Right ascension18h 27m 29s
Apparent Declination-72° 18' 24"
Sunlit
Object is in daylight
Visualization observer readout
Local Sidereal Time14:10:12
Azimuth161.428° S
Elevation-30.684°
Doppler factor1
Orbital elements
Apogee altitude584.47 km
Perigee altitude573.723 km
Semi-major axis6,957.234 km
Eccentricity0.0007724
Inclination98.3105°
RAAN227.259°
Arg. of periapsis211.6351°
True anomaly148.48669°
Mean anomaly148.4404°
Eccentric anomaly148.46355°
Mean motion3.74014 °/min
BSTAR0.0014533
Orbital period96.25 mins
Loading maneuver chart data...
Loading historical data...
Loading historical data...
Loading historical data...
Loading historical data...
Loading historical data...
Loading historical data...
Loading historical data...
Other satellites on launch #34 in the year 2014 (2014-06-30 UTC)

AISAT Visibility forecast

Observer location: undefined°, undefined

Span
Click to sort rows by Start time (UTC) header in descending order
Start Az.
Max El. time (UTC)
Max El. Az.
Max El.
End time (UTC)
End Az.
7 mins2024-12-26 15:03:17.996Z150.992° SSE2024-12-26 15:06:17.996Z86.618° E40.881°2024-12-26 15:10:17.996Z354.971° N
6 mins2024-12-27 04:21:17.996Z6.558° NNE2024-12-27 04:23:17.996Z336.235° NNW42.588°2024-12-27 04:27:17.996Z200.549° SSW
|